When you browse on this site, cookies collect data to enhance your experience and personalize the content and advertising you see.
Visit our Privacy Policy to learn more. By continuing to use the site, you agree to this use of cookies and data.
  • In Schweiz
  • Länderverzeichnis
  • Für 7 Tage
  • Wassertemperatur
  • Satellitenkarten
  • Wetterkarte
  • Widgets
  • user-avatar
    Anmelden

    Stündliche Wetter Lututow

    Heute, 20 Februar, Mittwoch

    Zeit Temperatur Niederschläge Wind Luftdruck Luftfeuchtigkeit
    00:00 +3°C° 0 mm 5 m/S 746 mmHg 88%
    01:00 +2°C° 0 mm 5 m/S 746 mmHg 85%
    02:00 +2°C° 0 mm 5 m/S 746 mmHg 87%
    03:00 +2°C° 0 mm 5 m/S 746 mmHg 88%
    04:00 +1°C° 0 mm 5 m/S 747 mmHg 89%
    05:00 +1°C° 0 mm 5 m/S 747 mmHg 89%
    06:00 +1°C° 0 mm 5 m/S 747 mmHg 90%
    07:00 +1°C° 0 mm 5 m/S 747 mmHg 90%
    08:00 +2°C° 0.1 mm 6 m/S 748 mmHg 87%
    09:00 +2°C° 0.1 mm 6 m/S 748 mmHg 85%
    10:00 +2°C° 0.1 mm 6 m/S 749 mmHg 82%
    11:00 +3°C° 0 mm 6 m/S 749 mmHg 80%
    12:00 +3°C° 0 mm 6 m/S 749 mmHg 78%
    13:00 +3°C° 0 mm 6 m/S 749 mmHg 76%
    14:00 +3°C° 0 mm 6 m/S 749 mmHg 75%
    15:00 +3°C° 0 mm 5 m/S 749 mmHg 74%
    16:00 +5°C° 0 mm 5 m/S 750 mmHg 73%
    17:00 +4°C° 0 mm 4 m/S 750 mmHg 75%
    18:00 +4°C° 0 mm 4 m/S 750 mmHg 78%
    19:00 +4°C° 0 mm 3 m/S 750 mmHg 80%
    20:00 +4°C° 0 mm 3 m/S 751 mmHg 82%
    21:00 +4°C° 0 mm 3 m/S 751 mmHg 83%
    22:00 +3°C° 0 mm 3 m/S 751 mmHg 85%
    23:00 +3°C° 0 mm 3 m/S 751 mmHg 85%

    Morgen, 21 Februar, Donnerstag

    Zeit Temperatur Niederschläge Wind Luftdruck Luftfeuchtigkeit
    00:00 +3°C° 0 mm 3 m/S 752 mmHg 85%
    01:00 +3°C° 0 mm 3 m/S 752 mmHg 85%
    02:00 +3°C° 0 mm 3 m/S 752 mmHg 87%
    03:00 +3°C° 0 mm 3 m/S 752 mmHg 88%
    04:00 +3°C° 0 mm 4 m/S 752 mmHg 89%
    05:00 +3°C° 0 mm 4 m/S 752 mmHg 88%
    06:00 +3°C° 0 mm 4 m/S 752 mmHg 87%
    07:00 +3°C° 0 mm 4 m/S 752 mmHg 86%
    08:00 +3°C° 0.1 mm 4 m/S 751 mmHg 84%
    09:00 +2°C° 0.1 mm 5 m/S 751 mmHg 82%
    10:00 +3°C° 0.1 mm 5 m/S 751 mmHg 80%
    11:00 +3°C° 0.4 mm 6 m/S 751 mmHg 80%
    12:00 +3°C° 0.4 mm 6 m/S 751 mmHg 79%
    13:00 +4°C° 0.4 mm 7 m/S 750 mmHg 79%
    14:00 +4°C° 0.9 mm 6 m/S 750 mmHg 80%
    15:00 +4°C° 0.9 mm 6 m/S 750 mmHg 82%
    16:00 +4°C° 0.9 mm 6 m/S 749 mmHg 83%
    17:00 +4°C° 0.7 mm 6 m/S 749 mmHg 85%
    18:00 +4°C° 0.7 mm 6 m/S 749 mmHg 86%
    19:00 +4°C° 0.7 mm 6 m/S 749 mmHg 88%
    20:00 +4°C° 0.5 mm 6 m/S 749 mmHg 89%
    21:00 +4°C° 0.5 mm 6 m/S 749 mmHg 90%
    22:00 +4°C° 0.5 mm 6 m/S 748 mmHg 91%
    23:00 +5°C° 0.9 mm 7 m/S 748 mmHg 91%

    übermorgen, 22 Februar, Freitag

    Zeit Temperatur Niederschläge Wind Luftdruck Luftfeuchtigkeit
    00:00 +5°C° 0.9 mm 7 m/S 748 mmHg 91%
    01:00 +5°C° 0.9 mm 7 m/S 748 mmHg 91%
    02:00 +5°C° 0.7 mm 7 m/S 748 mmHg 91%
    03:00 +5°C° 0.7 mm 7 m/S 749 mmHg 91%
    04:00 +4°C° 0.7 mm 7 m/S 749 mmHg 90%
    05:00 +3°C° 0.4 mm 7 m/S 750 mmHg 88%
    06:00 +1°C° 0.4 mm 8 m/S 751 mmHg 85%
    07:00 -1°C° 0.4 mm 8 m/S 752 mmHg 83%
    08:00 -1°C° 0 mm 8 m/S 753 mmHg 77%
    09:00 -2°C° 0 mm 7 m/S 755 mmHg 71%
    10:00 -2°C° 0 mm 7 m/S 756 mmHg 65%
    11:00 -2°C° 0 mm 7 m/S 757 mmHg 61%
    12:00 -2°C° 0 mm 6 m/S 758 mmHg 57%
    13:00 -1°C° 0 mm 6 m/S 759 mmHg 52%
    14:00 -2°C° 0 mm 6 m/S 759 mmHg 51%
    15:00 -2°C° 0 mm 6 m/S 760 mmHg 49%
    16:00 -2°C° 0 mm 6 m/S 760 mmHg 47%
    17:00 -2°C° 0 mm 5 m/S 761 mmHg 49%
    18:00 -4°C° 0 mm 5 m/S 761 mmHg 52%
    19:00 -4°C° 0 mm 5 m/S 762 mmHg 54%
    20:00 -5°C° 0 mm 5 m/S 763 mmHg 53%
    21:00 -4°C° 0 mm 4 m/S 763 mmHg 53%
    22:00 -4°C° 0 mm 4 m/S 764 mmHg 52%
    23:00 -4°C° 0 mm 4 m/S 764 mmHg 50%

    23 Februar, Samstag

    Zeit Temperatur Niederschläge Wind Luftdruck Luftfeuchtigkeit
    00:00 -5°C° 0 mm 4 m/S 764 mmHg 47%
    01:00 -5°C° 0 mm 4 m/S 764 mmHg 45%
    02:00 -5°C° 0 mm 4 m/S 764 mmHg 43%
    03:00 -5°C° 0 mm 3 m/S 764 mmHg 41%
    04:00 -5°C° 0 mm 3 m/S 764 mmHg 39%
    05:00 -5°C° 0 mm 3 m/S 764 mmHg 38%
    06:00 -6°C° 0 mm 3 m/S 765 mmHg 37%
    07:00 -6°C° 0 mm 3 m/S 765 mmHg 37%
    08:00 -5°C° 0 mm 3 m/S 765 mmHg 35%
    09:00 -5°C° 0 mm 3 m/S 765 mmHg 33%
    10:00 -4°C° 0 mm 3 m/S 766 mmHg 31%
    11:00 -4°C° 0 mm 3 m/S 765 mmHg 29%
    12:00 -2°C° 0 mm 2 m/S 765 mmHg 27%
    13:00 -2°C° 0 mm 2 m/S 765 mmHg 26%
    14:00 -2°C° 0 mm 2 m/S 765 mmHg 26%
    15:00 -2°C° 0 mm 2 m/S 765 mmHg 27%
    16:00 -1°C° 0 mm 2 m/S 764 mmHg 28%
    17:00 -2°C° 0 mm 2 m/S 764 mmHg 31%
    18:00 -1°C° 0 mm 1 m/S 764 mmHg 34%
    19:00 -1°C° 0 mm 1 m/S 764 mmHg 37%
    20:00 -1°C° 0 mm 1 m/S 764 mmHg 37%
    21:00 -2°C° 0 mm 0 m/S 764 mmHg 37%
    22:00 -2°C° 0 mm 0 m/S 764 mmHg 37%
    23:00 -2°C° 0 mm 0 m/S 764 mmHg 36%

    24 Februar, Sonntag

    Zeit Temperatur Niederschläge Wind Luftdruck Luftfeuchtigkeit
    00:00 -2°C° 0 mm 0 m/S 764 mmHg 35%
    01:00 -1°C° 0 mm 0 m/S 764 mmHg 34%
    02:00 -1°C° 0 mm 0 m/S 764 mmHg 34%
    03:00 -1°C° 0 mm 0 m/S 763 mmHg 34%
    04:00 0°C° 0 mm 1 m/S 763 mmHg 34%
    05:00 0°C° 0 mm 1 m/S 763 mmHg 35%
    06:00 -1°C° 0 mm 1 m/S 763 mmHg 36%
    07:00 -1°C° 0 mm 1 m/S 763 mmHg 37%
    08:00 0°C° 0 mm 1 m/S 763 mmHg 34%
    09:00 +1°C° 0 mm 1 m/S 763 mmHg 30%
    10:00 +2°C° 0 mm 1 m/S 763 mmHg 27%
    11:00 +1°C° 0 mm 2 m/S 762 mmHg 28%
    12:00 +2°C° 0 mm 2 m/S 762 mmHg 28%
    13:00 +3°C° 0 mm 2 m/S 762 mmHg 28%
    14:00 +3°C° 0 mm 2 m/S 762 mmHg 33%
    15:00 +3°C° 0 mm 2 m/S 761 mmHg 38%
    16:00 +4°C° 0 mm 1 m/S 761 mmHg 43%
    17:00 +3°C° 0 mm 1 m/S 761 mmHg 46%
    18:00 +2°C° 0 mm 1 m/S 761 mmHg 48%
    19:00 +1°C° 0 mm 1 m/S 762 mmHg 51%
    20:00 +1°C° 0 mm 1 m/S 762 mmHg 52%
    21:00 +1°C° 0 mm 1 m/S 762 mmHg 53%
    22:00 0°C° 0 mm 1 m/S 762 mmHg 55%
    23:00 0°C° 0 mm 1 m/S 762 mmHg 55%

    25 Februar, Montag

    Zeit Temperatur Niederschläge Wind Luftdruck Luftfeuchtigkeit
    00:00 -2°C° 0 mm 2 m/S 762 mmHg 56%
    01:00 -2°C° 0 mm 2 m/S 762 mmHg 57%
    02:00 -2°C° 0 mm 2 m/S 761 mmHg 57%
    03:00 -1°C° 0 mm 2 m/S 761 mmHg 57%
    04:00 -1°C° 0 mm 2 m/S 761 mmHg 57%
    05:00 -1°C° 0 mm 2 m/S 761 mmHg 58%
    06:00 -2°C° 0 mm 2 m/S 761 mmHg 60%
    07:00 -2°C° 0 mm 2 m/S 761 mmHg 61%
    08:00 -1°C° 0 mm 3 m/S 761 mmHg 59%
    09:00 0°C° 0 mm 3 m/S 761 mmHg 57%
    10:00 +1°C° 0 mm 3 m/S 761 mmHg 56%
    11:00 +1°C° 0 mm 4 m/S 761 mmHg 57%
    12:00 +3°C° 0 mm 4 m/S 760 mmHg 58%
    13:00 +4°C° 0 mm 4 m/S 760 mmHg 59%
    14:00 +5°C° 0 mm 4 m/S 760 mmHg 65%
    15:00 +5°C° 0 mm 4 m/S 760 mmHg 71%
    16:00 +5°C° 0 mm 3 m/S 759 mmHg 76%
    17:00 +4°C° 0 mm 3 m/S 760 mmHg 79%
    18:00 +3°C° 0 mm 3 m/S 760 mmHg 83%
    19:00 +2°C° 0 mm 3 m/S 761 mmHg 86%
    20:00 +1°C° 0 mm 3 m/S 761 mmHg 85%
    21:00 +1°C° 0 mm 3 m/S 761 mmHg 85%
    22:00 0°C° 0 mm 3 m/S 761 mmHg 85%
    23:00 0°C° 0 mm 3 m/S 761 mmHg 86%
    Mehr zeigen